Cloud_Cover
100 100 100 100 100 100 96 100 100 96 100 100 100 100 100 38 20 83 98 53 60 70 100 100 94 44 5 5 14 51 5 5 2 5 6 5 1 0 0 0 0 0 0
85 98 96 100 100 100 100 100 100 100 100 100 74 100 100 93 81 81 41 71 100 99 98 95 100 100 99 89 85 45 5 5 5 5 5 16 50 5 4 4 0 0 5
100 100 61 28 65 91 100 95 100 100 100 100 100 98 100 100 100 100 100 100 100 90 100 100 100 100 100 100 100 100 99 75 10 5 5 52 95 100 61 22 5 1 8
4 12 84 77 1 31 4 34 98 25 58 98 100 99 84 100 100 100 100 92 81 98 100 100 100 100 100 100 100 100 100 100 90 52 5 5 5 42 84 67 88 68 28
50 8 5 5 1 3 5 5 5 5 95 49 70 89 85 100 30 91 100 66 54 60 89 100 82 100 100 100 96 95 100 100 100 98 70 5 2 6 85 99 100 100 63
0 2 0 0 0 0 0 0 0 0 0 2 98 92 98 73 48 0 26 52 85 75 5 13 98 61 52 89 100 100 100 100 100 100 100 100 50 9 100 100 100 100 100
5 5 3 3 2 0 3 0 0 0 0 0 0 0 60 100 95 1 5 5 5 5 5 5 5 0 5 61 88 94 90 100 100 100 100 100 100 100 97 100 100 100 100
5 5 5 5 5 5 3 0 0 0 2 3 4 5 4 2 5 7 61 56 5 5 5 5 5 5 3 1 1 3 4 5 95 100 100 100 100 100 100 100 100 100 100
1 3 5 5 5 2 0 0 3 5 5 5 5 8 82 5 40 99 100 100 83 63 13 5 5 5 5 5 5 5 5 4 0 94 100 93 100 100 100 100 100 100 100
5 3 0 0 5 5 5 5 5 5 5 5 5 5 5 9 6 99 100 100 100 100 78 34 6 6 5 8 43 8 5 5 5 5 5 98 100 100 100 100 100 100 100
4 0 1 2 0 4 5 5 5 5 6 17 28 27 57 58 57 100 100 100 100 100 100 100 100 80 95 94 88 88 76 5 5 5 7 12 83 100 100 100 100 100 100
4 5 5 4 5 5 5 5 11 73 97 100 99 100 100 77 21 91 100 100 100 100 100 100 100 100 100 100 100 94 20 89 100 97 93 87 100 100 98 100 100 100 100
5 5 5 5 5 5 41 92 100 100 100 100 100 100 99 5 5 21 88 100 100 100 99 47 98 100 100 100 100 100 100 100 100 100 100 66 92 87 100 100 100 100 100
5 5 5 5 5 22 5 5 100 100 100 100 100 100 100 100 100 100 100 68 19 26 5 5 5 56 100 100 74 99 100 100 100 97 94 65 92 100 99 100 100 100 100
5 7 48 36 46 28 30 91 100 100 100 100 100 100 100 100 100 100 100 100 100 100 100 100 100 100 100 100 100 100 100 100 84 92 100 100 100 100 98 100 90 100 100
80 70 72 100 77 100 100 96 59 100 100 100 100 100 100 100 100 100 100 100 100 100 100 99 95 100 100 100 100 100 100 51 5 88 100 100 100 100 96 100 100 100 100
89 100 100 100 100 100 100 100 100 67 84 100 100 100 100 100 100 100 100 100 100 100 100 91 100 48 77 100 100 100 100 98 100 100 100 100 100 100 100 100 100 99 100
81 71 100 100 100 100 100 100 100 100 100 66 77 100 100 100 100 100 100 100 95 49 100 100 100 100 76 90 74 62 59 97 100 97 100 100 100 100 100 100 100 96 100
93 95 100 100 100 100 100 100 100 100 100 100 100 91 67 86 100 100 100 100 100 100 100 100 100 100 100 100 94 58 5 95 93 87 100 100 100 100 100 100 100 100 100
66 99 100 100 100 100 100 100 100 100 100 100 100 100 90 100 73 94 100 100 100 100 100 100 100 100 100 100 100 100 100 100 100 100 100 100 100 100 100 100 100 100 100
100 100 100 100 100 100 100 100 100 100 100 100 100 100 100 100 100 100 100 100 100 100 100 100 100 100 100 100 100 100 100 100 100 100 100 100 100 100 100 100 100 100 100
100 100 100 100 100 100 100 100 100 100 100 100 100 100 100 100 100 100 100 100 100 100 100 100 100 100 100 100 100 100 100 100 100 100 100 100 100 100 100 100 100 100 100
100 100 100 100 100 91 92 60 94 100 100 100 100 100 100 100 100 100 100 100 100 100 100 100 100 100 100 100 100 100 100 100 100 100 100 100 100 100 100 100 100 100 100
100 100 100 99 92 77 73 76 81 96 100 100 100 100 100 100 100 100 100 100 100 100 100 100 100 100 100 100 100 100 100 100 100 100 100 100 100 100 100 100 100 100 100
100 100 100 90 77 58 19 5 21 21 50 81 90 96 95 97 99 100 100 100 100 100 100 100 100 100 100 100 100 100 100 100 100 100 100 100 100 100 100 100 100 100 100
100 100 100 95 96 70 12 6 5 5 5 5 22 68 73 69 74 73 63 91 100 100 98 100 100 100 100 100 100 100 100 100 100 100 100 100 100 100 100 100 100 100 100